This demonstration page uses our WeatherBlox Daily Observations layout. Learn more.

36.17497, -115.13722

Hourly Observations for May 2, 2018

Temp ( °F °C ) Dew Point ( °F °C ) Humidity (%) Winds ( mph kmh ) Pressure ( in mb ) Visibility ( mi km ) Precip ( " mm )
12:53 am 00:53 Partly Cloudy 51 10.6 47 8.3 86 86 E 6 9 29.83 1010 10 16.09344 0 0
1:53 am 01:53 Cloudy 52 11.1 47 8.3 83 83 Calm 29.83 1010 10 16.09344 0 0
2:53 am 02:53 Cloudy 53 11.7 46 7.8 77 77 ESE 8 13 29.83 1010 10 16.09344 0 0
3:53 am 03:53 Cloudy with Light Rain 52 11.1 47 8.3 83 83 Calm 29.83 1010 10 16.09344 0.001 0.001
4:53 am 04:53 Cloudy with Light Rain 52 11.1 48 8.9 86 86 Calm 29.83 1010 10 16.09344 0.01 0.254
5:53 am 05:53 Cloudy 52 11.1 48 8.9 86 86 WSW 3 6 29.85 1011 10 16.09344 0.001 0.001
6:53 am 06:53 Cloudy 53 11.7 47 8.3 80 80 Calm 29.88 1012 10 16.09344 0 0
7:53 am 07:53 Cloudy 54 12.2 47 8.3 77 77 N 3 6 29.91 1013 10 16.09344 0 0
8:42 am 08:42 Cloudy with Light Rain 53 11.7 47 8.3 80 80 Calm 29.91 1013 2.5 4.02336 0.05 1.27
8:49 am 08:49 Cloudy with Light Rain 54 12 46 8 77 77 Calm 29.91 1013 6 9.656064 0.05 1.27
8:53 am 08:53 Cloudy 54 12.2 47 8.3 77 77 NW 3 6 29.91 1013 10 16.09344 0.05 1.27
9:32 am 09:32 Cloudy 55 12.8 47 8.3 74 74 E 3 6 29.88 1012 10 16.09344 0 0
9:53 am 09:53 Cloudy 56 13.3 43 6.1 62 62 SSE 7 11 29.94 1014 10 16.09344 0 0
10:53 am 10:53 Mostly Cloudy 57 13.9 42 5.6 58 58 N 3 6 29.94 1014 10 16.09344 0 0
11:53 am 11:53 Cloudy with Light Rain 54 12.2 49 9.4 83 83 NW 13 20 29.97 1015 10 16.09344 0.02 0.508
12:38 pm 12:38 Cloudy with Nearby Thunderstorms 57 13.9 47 8.3 69 69 NNW 8 13 29.91 1013 10 16.09344 0.001 0.001
12:53 pm 12:53 Mostly Cloudy with Nearby Thunderstorms 58 14.4 46 7.8 65 65 N 6 9 29.97 1015 10 16.09344 0.001 0.001
1:08 pm 13:08 Partly Cloudy 60 15.6 45 7.2 58 58 NW 6 9 29.91 1013 10 16.09344 0 0
1:53 pm 13:53 Partly Cloudy 62 16.7 42 5.6 48 48 N 7 11 29.94 1014 10 16.09344 0 0
2:53 pm 14:53 Sunny 64 17.8 40 4.4 41 41 NNW 8 13 29.94 1014 10 16.09344 0 0
3:53 pm 15:53 Sunny 66 18.9 38 3.3 36 36 NNE 8 13 29.91 1013 10 16.09344 0 0
4:53 pm 16:53 Sunny 67 19.4 38 3.3 35 35 ENE 5 7 29.91 1013 10 16.09344 0 0
5:53 pm 17:53 Mostly Cloudy 68 20 37 2.8 32 32 N 6 9 29.91 1013 10 16.09344 0 0
6:53 pm 18:53 Mostly Sunny 66 18.9 39 3.9 37 37 SE 3 6 29.94 1014 10 16.09344 0 0
7:53 pm 19:53 Clear 65 18.3 39 3.9 39 39 SW 3 6 29.97 1015 10 16.09344 0 0
8:53 pm 20:53 Clear 64 17.8 40 4.4 41 41 W 5 7 30 1016 10 16.09344 0 0
9:53 pm 21:53 Clear 63 17.2 42 5.6 47 47 SE 3 6 30.03 1017 10 16.09344 0 0
10:53 pm 22:53 Clear 60 15.6 43 6.1 53 53 ESE 5 7 30.03 1017 10 16.09344 0 0
11:53 pm 23:53 Clear 59 15 45 7.2 60 60 N 5 7 30.06 1018 10 16.09344 0 0

Powered by AerisWeather